Location: Bergnerzell
(49.1816°N, 10.2565°E)
Time: 10:01:35
(UTC+00:00)

Cosmos 1300 - Pass Details

Date: 23 May 2024
Orbit: 465 x 468 km, 82.5° (Epoch: 15 June)

Event Time Altitude Azimuth Distance (km) Brightness Sun altitude
Rises 00:54:31 0° 335° (NNW) 2,516 6.8 -16.8°
Reaches altitude 10° 00:57:09 10° 314° (NW) 1,632 5.5 -16.6°
Maximum altitude 00:59:29 17° 273° (W) 1,267 4.4 -16.5°
Enters shadow 00:59:45 17° 267° (W) 1,272 4.4 -16.4°
